[Iaude] MPEC T57: 2023 TM1 [a=0.91,e=0.19,i=12.3,H=25.7]
    mpec at marsden.cfa.harvard.edu 
    mpec at marsden.cfa.harvard.edu
       
    Fri Oct  6 20:55:22 EDT 2023
    
    
  
M.P.E.C. 2023-T57                               Issued 2023 October 7, 00:54 UT
     The Minor Planet Electronic Circulars contain information on unusual
         minor planets, routine data on comets and natural satellites,
         and occasional editorial announcements.  They are published
    on behalf of Division F of the International Astronomical Union by the
          Minor Planet Center, Smithsonian Astrophysical Observatory,
                          Cambridge, MA 02138, U.S.A.
			  
             Prepared using the Tamkin Foundation Computer Network
                              MPC at CFA.HARVARD.EDU
            URL https://www.minorplanetcenter.net/    ISSN 1523-6714
                                    2023 TM1                                    
Observations:
     K23T01M*1C2023 10 05.35336901 44 05.917+09 23 10.32         20.44GVET057G96
     K23T01M 1C2023 10 05.35899701 44 02.242+09 23 46.43         20.47GVET057G96
     K23T01M 1C2023 10 05.36461701 43 58.577+09 24 22.32         20.40GVET057G96
     K23T01M  C2023 10 05.41942801 43 22.491+09 30 06.09         20.9 GVET057H01
     K23T01M  C2023 10 05.42312801 43 20.085+09 30 29.47         20.7 GVET057H01
     K23T01M  C2023 10 05.43450101 43 12.722+09 31 41.25         20.7 GVET057H01
     K23T01M  C2023 10 05.44321301 43 07.082+09 32 36.16         21.0 GVET057H01
     K23T01M  C2023 10 06.26458401 34 38.425+11 01 12.33         21.7 GVET057H01
     K23T01M  C2023 10 06.26790101 34 36.148+11 01 34.22         20.4 GVET057H01
     K23T01M  C2023 10 06.27929001 34 28.319+11 02 49.34         20.5 GVET057H01
     K23T01M KC2023 10 06.27946301 34 28.02 +11 02 48.6          21.3 GXET057858
     K23T01M  C2023 10 06.28568701 34 23.920+11 03 31.47         20.4 GVET057H01
     K23T01M KC2023 10 06.28622201 34 23.39 +11 03 32.9          20.1 GXET057858
     K23T01M KC2023 10 06.29329901 34 18.50 +11 04 19.4          20.6 GXET057858
     K23T01M KC2023 10 06.29572 01 34 15.59 +11 04 27.9          20.9 GVET057H36
     K23T01M KC2023 10 06.31532 01 34 01.03 +11 06 38.0          20.8 GVET057H36
     K23T01M KB2023 10 06.97746601 26 48.95 +12 19 22.6          20.7 GVET057I93
     K23T01M KB2023 10 06.98080001 26 46.63 +12 19 44.3          20.1 GVET057I93
     K23T01M KB2023 10 06.98413501 26 44.26 +12 20 07.0          20.5 GVET057I93
Observer details:
858 Tebbutt Observatory, Edgewood.  Observer F. B. Zoltowski.  0.51-m f/8.1
    Schmidt-Cassegrain + CCD.
G96 Mt. Lemmon Survey.  Observer G. J. Leonard.  Measurers E. C. Beshore, D.
    Fay, J. B. Fazekas, D. C. Fuls, A. R. Gibbs, A. D. Grauer, H. Groeller, J.
    K. Hogan, R. A. Kowalski, S. M. Larson, G. J. Leonard, D. Rankin, R. L.
    Seaman, F. C. Shelly, K. W. Wierzchos.  1.5-m reflector + 10K CCD.
H01 Magdalena Ridge Observatory, Socorro.  Observers W. H. Ryan, E. V. Ryan.
    Measurer W. H. Ryan.  2.4-m f/8.9 Ritchey-Chretien + CCD.
H36 Sandlot Observatory, Scranton.  Observer G. Hug.  .57 meter f/4.6 + CCD.
I93 St Pardon de Conques.  Observer F. Losse.  0.40-m f/3.7 reflector + CMO.
Orbital elements:
2023 TM1                                                 Earth MOID = 0.0653 AU
Epoch 2023 Sept. 13.0 TT = JDT 2460200.5                Veres                   
M 178.96853              (2000.0)            P               Q                  
n   1.13798481     Peri.  162.50209     -0.99534706     -0.08374378             
a   0.9086119      Node    12.97462     +0.04084424     -0.81466736             
e   0.1883792      Incl.   12.25501     +0.08726956     -0.57385022             
P   0.87           H   25.78          G   0.15           U   7                  
Residuals in seconds of arc
231005 G96  0.1-  0.4-    231006 H01  0.1+  0.0     231006 H36  0.1-  0.2-
231005 G96  0.1-  0.1-    231006 H01  0.1+  0.0     231006 H36(16.1-  1.6+)
231005 G96  0.0   0.1+    231006 H01  0.0   0.1+    231006 I93  0.4-  0.1+
231005 H01  0.1+  0.1+    231006 858  0.6-  0.3+    231006 I93  0.2+  0.5-
231005 H01  0.0   0.1+    231006 H01  0.0   0.1+    231006 I93  0.2+  0.1-
231005 H01  0.1+  0.1+    231006 858  0.3-  0.1+
231005 H01  0.1-  0.0     231006 858  0.6-  0.1+
Ephemeris:
2023 TM1                 a,e,i = 0.91, 0.19, 12                  q = 0.7374
Date    TT    R. A. (2000) Decl.     Delta      r    Elong.  Phase     V
2023 09 07    03 38 54.0 -14 23 03   0.1647  1.0786   111.3    60.6    24.2
...
2023 09 22    03 10 07.5 -07 04 05   0.1089  1.0782   130.7    44.9    22.8
...
2023 09 30    02 29 27.5 +01 03 59   0.08342 1.0736   148.4    29.3    21.8
...
2023 10 06    01 37 25.3 +10 33 11   0.07018 1.0681   165.7    13.3    20.9
2023 10 07    01 26 32.8 +12 22 55   0.06874 1.0671   168.1    11.1    20.8
2023 10 08    01 15 03.1 +14 14 48   0.06756 1.0659   169.6     9.7    20.7
...
2023 10 14    23 56 29.6 +24 52 01   0.06647 1.0583   154.8    23.6    21.1
...
2023 10 22    22 15 26.1 +32 53 11   0.07922 1.0455   127.4    49.1    22.2
...
2023 11 06    20 33 08.2 +35 23 01   0.1216  1.0140    97.3    75.9    23.9
M. P. C. Staff               (C) Copyright 2023 MPC           M.P.E.C. 2023-T57
    
    
More information about the Iaude
mailing list